DECAYED

STARLINK-2384, 47803 (Decayed)

Orbit data source: Space-Track

STARLINK-2384, 47803 was a payload satellite owned by SpaceX/Seattle (US) in LEO that was launched on Thu, 11 Mar 2021 UTC via an FALCON 9 launch vehicle from the Air Force Eastern Test Range (AFETR). Payload-class satellites include a variety of spacecraft equipped with specific instruments for various scientific and technological missions. These include communications satellites like Starlink; space stations such as the ISS; scientific satellites like the Hubble; Earth observation satellites from companies like Planet Labs, Umbra, and HawkEye 360; GPS; miniature CubeSats for education and research; and military/defense satellites.

Not visible in the next 10 days
Identifier
47803, 2021-018S
Orbit
Decayed
Country
Flag of USUS
Related business
Manufacturer
SpaceX/Seattle
Mission
Decayed Commercial Communications
Bus & Motor
STARLINK, Unknown motor
Mass
260 kg wet, ~248 kg dry
Launch date (UTC)
2021-03-11 (5 years ago)
Launch vehicle
FALCON 9
Launch site
Air Force Eastern Test Range (AFETR)
Object type
Payload
Rocket body
Debris
Shape & HBR
Box + 1 Pan, 10.1 m
Radar Cross Section
13.562 m², Large (>1 m²)

Expand to show TLE details & history
Last TLE update: 1 year ago

TLE from 1 year ago
0 STARLINK-2384
1 47803U 21018S   25114.73461060  .07445914  12267-4  11213-2 0  9990
2 47803  53.0342 200.5286 0007552 325.8458 174.9880 16.33449201228785
Epoch: 2025-04-24T17:37Z
TLE epoch observation values (Epoch: 2025-04-24T17:37:50.355Z)
Latitude
30.39968°
Longitude
-122.97432°
Altitude
189.975 km
Speed
7.794 km/s
True Right ascension
23h 37m 56s
True Declination
30° 14' 13"
Sunlit
Object was in daylight at epoch
Visualization orbit readout
Latitude
Unknown
Longitude
Unknown
Altitude
Unknown
Speed
Unknown
Apparent Right ascension
Unknown
Apparent Declination
Unknown
Sunlit
N/A
Visualization observer readout
Local Sidereal Time
21:41:43
Azimuth
Unknown
Elevation
Unknown
Doppler factor
Unknown
Orbital elements
Apogee altitude
188.531 km
Perigee altitude
178.62 km
Semi-major axis
6,561.712 km
Eccentricity
0.00076
Inclination
53.0342°
RAAN
200.5286°
Arg. of periapsis
325.8458°
True anomaly
174.99555°
Mean anomaly
174.988°
Eccentric anomaly
174.99178°
Mean motion
4.08336 °/min
Orbital period
88.16 mins
BSTAR
0.0011213
Loading maneuver chart data...
Computing Atmospheric mass density...
Loading historical data...
Loading historical data...
Loading historical data...
Loading historical data...
Loading historical data...
Loading historical data...
Loading historical data...

Documentation

Showing up to 5 results
|